Starlink 1371

operational
NORAD ID: 45542 Int'l Des: 2020-025 Owner: SPXS Country: US Constellation: starlink
LEOCIRCULAR

About Starlink 1371

Description loading...

Live Position

Loading 3D Globe...

Upcoming Passes

Altitude History

Altitude vs Time

uPlot chart will show altitude changes over time

Two-Line Element Set

1 45542U 20025M 26070.03984946 .00094213 00000-0 18030-2 0 9990
2 45542 53.0504 82.9710 0001571 4.3109 355.7911 15.47307554325548
Epoch: Mar 11, 2026 • Age: 13 hours

Current Status

Altitude 440.8 km
Velocity 7.65 km/s
Sub-Earth Point -46.75°S, 48.89°W
Launch Date Apr 22, 2020
Age 5.8 years
Type internet

Technical Details

Classification Payload
Mass 260.00 kg
Dry Mass 248.00 kg
Total Mass 260.00 kg
Length 0.20 m
Diameter 2.80 m
Span 9.00 m
Shape Box + pan
Manufacturer SPXS
Bus Type Starlink
Phase Status In Orbit
Owner/State SPXS/US

Large Constellations

Loading constellations...